User: anonymous   Login
Location: Oak Glen
(34.0495°N, 116.9470°E)
Time: 22:30:39
(UTC-08:00)
Language:

Vanguard 2 Rocket - Orbit

View from above orbital plane
View from above orbital plane
View from above satellite
View from above satellite

Ground track
Ground track

The orbit data is extracted from the following two-line orbital elements,

1    12U 59001B   18054.24984325 +.00000313 +00000-0 +17279-3 0  9999
2    12 032.9089 067.9148 1666220 312.6424 034.4978 11.44177461183144
Epoch (UTC): 23 February 2018 05:59:46
Eccentricity: 0.1666220
inclination: 32.9089°
perigee height: 555 km
apogee height: 3327 km
right ascension of ascending node: 67.9148°
argument of perigee: 312.6424°
revolutions per day: 11.44177461
mean anomaly at epoch: 34.4978°
orbit number at epoch: 18314

The dashed part of the orbit path shows where the satellite is in the earth's shadow,  

DLR